Location: Aucun
(42.9667°N, 0.1667°W)
Time: 18:46:27
(UTC+00:00)

Cosmos 614 Rocket - Pass Details

Date: 17 February 2020
Orbit: 732 x 764 km, 74.1° (Epoch: 28 March)

Event Time Altitude Azimuth Distance (km) Brightness Sun altitude
Rises 05:18:14 0° 197° (SSW) 3,168 7.0 -18.6°
Reaches altitude 10° 05:20:34 10° 196° (SSW) 2,254 6.3 -18.1°
Maximum altitude 05:25:41 85° 108° (ESE) 760 4.0 -17.2°
Drops below altitude 10° 05:30:53 10° 21° (NNE) 2,291 6.7 -16.2°
Sets 05:33:16 0° 21° (NNE) 3,225 7.5 -15.8°
